Погода в Великомихайловке

Украина / Днепропетровская область     47°58′12″N   36°27′53″E
темп.,
°C
ветер,
м/с
пор.,
м/с
влажн.,
%
обл.,
%
осадки,
мм/ч
давл.,
гПа
погр.,
м
18 апреля, вс
вс1800:00+8ююз2375100 0.0 102077
03:00+8юз2471100 0.0 1020120
06:00+7ююз227177 0.0 101943
09:00+11ю235685 0.0 1019548
12:00+14ююв334599 0.0 10181951
15:00+15зюз123891 0.0 10171967
18:00+15сз124286 0.0 10161285
21:00+11юз2357100 0.0 101760
19 апреля, пн
пн1900:00+9ссз237318 0.0 101749
03:00+7ссз2379100 0.0 101734
06:00+7с2279100 0.0 101745
09:00+11ссв226298 0.0 1017502
12:00+15ссв214861 0.0 10151571
15:00+15с3245100 0.0 10141543
18:00+14ссв2355100 0.0 101464
21:00+12св3662100 0.0 1014155
20 апреля, вт
вт2000:00+11всв3768100 0.0 1012160
03:00+10всв4873100 0.0 1009227
06:00+9в41190100 1.3 1006542
09:00+9всв51195100 10.2 1003616
12:00+11в7109458 13.0 999307
15:00+13ююз71090100 17.0 998818
18:00+12ююз712767 0.9 9981271
21:00+10ю81383100 0.9 10001011
21 апреля, ср
ср2100:00+9ююз51093100 0.1 1001578
03:00+8з81290100 0.3 1006990
06:00+7з7118776 0.1 1011634
09:00+9зюз687071 0.1 1014929
12:00+11зюз8956100 0.0 10161524
15:00+13з6848100 0.0 10171892
18:00+13з465334 0.0 10181652
21:00+10з1163100 0.0 102012
22 апреля, чт
чт2200:00+9ю22685 0.0 102131
03:00+7ююз227097 0.0 102221
06:00+8ю257196 0.0 1022127
09:00+12ююз346131 0.0 1023592
12:00+15ююз344957 0.8 10231925
15:00+15ю3454100 1.7 10231217
18:00+14ю356195 0.8 1023508
21:00+10ю337750 1.8 102442